Home   Weather   Los Angeles   Past weeks

Flag for USA Past Weather in Los Angeles, California, USA — Yesterday and Last 2 Weeks

Now
70 °F

Clear.


Feels Like: 72 °F
Forecast: 67 / 81 °F
Wind: No wind

Location: Los Angeles / USC Campus Downtown

Current Time: Jul 22, 2017 at 11:53:50 pm

Latest Report: Jul 22, 2017 at 10:47 pm


Visibility: 10 mi

Pressure: 29.88 "Hg

Humidity: 76%

Dew Point: 62 °F

Location of Los AngelesLocation

Past Weather in Los Angeles — Graph

°F

Los Angeles Temperature Yesterday

Maximum temperature yesterday: 84 °F (at 11:47 am)
Minimum temperature yesterday: 67 °F (at 1:47 am)
Average temperature yesterday: 73 °F

High & Low Weather Summary for the Past Weeks

 TemperatureHumidityPressure
High96 °F (Jul 8, 11:47 am)91% (Jul 14, 3:20 am)30.02 "Hg (Jul 14, 3:20 am)
Low65 °F (Jul 14, 3:20 am)35% (Jul 8, 12:47 pm)29.77 "Hg (Jul 8, 7:47 pm)
Average75 °F68%29.90 "Hg
* Reported Jul 7 9:47 pm — Jul 22 9:47 pm, Los Angeles. Weather by CustomWeather, © 2017

Note: Actual official high and low records may vary slightly from our data, if they occured in-between our weather recording intervals... More about our weather records

Advertising

Los Angeles Weather History for the Previous 24 Hours

Scroll right to see more
 ConditionsComfort  
Time TempWeatherWind HumidityBarometerVisibility
9:47 pm
Sat, Jul 22
71 °FClear.No wind76%29.88 "Hg10 mi
8:47 pm72 °FClear.5 mph73%29.86 "Hg10 mi
7:47 pm73 °FSunny.5 mph71%29.84 "Hg10 mi
6:47 pm76 °FSunny.5 mph67%29.83 "Hg10 mi
5:47 pm78 °FSunny.5 mph64%29.82 "Hg9 mi
4:47 pm79 °FSunny.3 mph62%29.83 "Hg9 mi
3:47 pm79 °FSunny.7 mph62%29.84 "Hg10 mi
2:47 pm80 °FSunny.7 mph60%29.86 "Hg10 mi
1:47 pm81 °FSunny.N/A58%29.88 "Hg10 mi
12:47 pm82 °FSunny.5 mph56%29.89 "Hg10 mi
11:47 am85 °FSunny.5 mph51%29.88 "Hg9 mi
10:47 am82 °FSunny.No wind55%29.90 "Hg8 mi
9:47 am79 °FSunny.No wind62%29.90 "Hg7 mi
8:47 am76 °FSunny.3 mph67%29.91 "Hg5 mi
7:47 am72 °FSunny.No wind76%29.90 "Hg5 mi
6:56 am69 °FScattered clouds.No wind81%29.90 "Hg6 mi
6:47 am69 °FPartly sunny.No wind81%29.89 "Hg7 mi
5:47 am69 °FOvercast.No wind81%29.88 "Hg8 mi
4:47 am69 °FPassing clouds.No wind84%29.89 "Hg6 mi
4:30 am69 °FPassing clouds.No wind81%29.89 "Hg7 mi
3:47 am68 °FPassing clouds.No wind82%29.89 "Hg10 mi
2:47 am68 °FClear.No wind82%29.89 "Hg10 mi
1:47 am68 °FClear.No wind82%29.89 "Hg10 mi
12:47 am69 °FClear.No wind79%29.89 "Hg10 mi
11:47 pm
Fri, Jul 21
69 °FClear.No wind81%29.89 "Hg10 mi
Weather by CustomWeather, © 2017

See weather overviewHow to use our weather pages